This is the latest recevied weather packets stored in our database for station/object AC2JK-WX. If no packets are shown the sender has not sent any weather packets the latest 10 day(s).
| Time | Temp. | Humidity | Pressure | Rain* | Wind** | Luminosity | Snow |
|---|---|---|---|---|---|---|---|
| 1777298830 | 16.67° C | 48% | 1025 hPa | 0 mm | - | - | - |
| 1777298530 | 16.67° C | 48% | 1025 hPa | 0 mm | - | - | - |
| 1777298231 | 16.67° C | 54% | 1025 hPa | 0 mm | - | - | - |
| 1777297930 | 16.11° C | 51% | 1025 hPa | 0 mm | - | - | - |
| 1777297630 | 15.56° C | 49% | 1025 hPa | 0 mm | - | - | - |
| 1777297330 | 15.56° C | 52% | 1025 hPa | 0 mm | - | - | - |
| 1777297030 | 15.56° C | 53% | 1025 hPa | 0 mm | - | - | - |
| 1777296730 | 15° C | 54% | 1025 hPa | 0 mm | - | - | - |
| 1777296429 | 15° C | 57% | 1025 hPa | 0 mm | - | - | - |
| 1777296130 | 14.44° C | 59% | 1025 hPa | 0 mm | - | - | - |
| 1777295832 | 13.89° C | 59% | 1025 hPa | 0 mm | - | - | - |
| 1777295532 | 13.89° C | 59% | 1025 hPa | 0 mm | - | - | - |
| 1777295230 | 13.33° C | 63% | 1025 hPa | 0 mm | - | - | - |
| 1777294930 | 12.78° C | 64% | 1025 hPa | 0 mm | - | - | - |
| 1777294630 | 12.22° C | 66% | 1025 hPa | 0 mm | - | - | - |
| 1777294332 | 11.67° C | 69% | 1025 hPa | 0 mm | - | - | - |
| 1777294033 | 11.11° C | 71% | 1025 hPa | 0 mm | - | - | - |
| 1777293729 | 10° C | 75% | 1025 hPa | 0 mm | - | - | - |
| 1777293430 | 9.44° C | 80% | 1025 hPa | 0 mm | - | - | - |
| 1777293130 | 9.44° C | 83% | 1025 hPa | 0 mm | - | - | - |
| 1777292830 | 8.89° C | 87% | 1025 hPa | 0 mm | - | - | - |
| 1777292529 | 8.33° C | 89% | 1025 hPa | 0 mm | - | - | - |
| 1777292230 | 7.78° C | 90% | 1025 hPa | 0 mm | - | - | - |
| 1777291930 | 7.78° C | 92% | 1025 hPa | 0 mm | - | - | - |
| 1777291630 | 7.22° C | 93% | 1025 hPa | 0 mm | - | - | - |
* Rain latest hour (hover to see other rain measurements)
** Current wind speed in m/s (hover to see current wind gust speed)